Regional Weather Roundup
Issued by NWS

Home | Current Version | Previous Version | Graphics & Text | Print | Product List | Glossary On
Versions: 1 2 3 4 5 6 7 8 9 10 11 12 13 14 15 16 17 18 19 20 21 22 23 24 25 26 27 28 29 30 31 32 33 34 35 36 37 38 39 40 41 42 43 44 45 46 47 48 49 50
100
ASUS45 KBOU 221707
RWRCO

WEATHER ROUNDUP FOR COLORADO
NATIONAL WEATHER SERVICE DENVER/BOULDER CO
1100 AM MDT SUN OCT 22 2017

NOTE: "FAIR" INDICATES FEW OR NO CLOUDS BELOW 12000 FEET WITH NO
SIGNIFICANT WEATHER AND/OR OBSTRUCTIONS TO VISIBILITY.

COZ001>005-013-030-031-221800-
...NORTHWEST COLORADO...

CITY           SKY/WX    TMP DP  RH WIND       PRES   REMARKS
CRAIG          FAIR      45  21  38 NE7       30.43S
HAYDEN         FAIR      43  21  41 NW3       30.44S
MEEKER         FAIR      47  24  40 NE8       30.44F
RABBIT EARS PA CLOUDY    28  21  74 W12G24    30.43R WCI  18
STEAMBOAT SPGS FAIR      40  24  52 CALM      30.43S
WALDEN         NOT AVBL
$$

COZ006>008-011-221800-
...WEST CENTRAL VALLEYS...

CITY           SKY/WX    TMP DP  RH WIND       PRES   REMARKS
GRAND JUNCTION FAIR      50  17  27 SE12      30.45F
MONTROSE       FAIR      46  13  26 VRB3      30.49F
EAGLE          FAIR      38  20  48 CALM      30.48F
RIFLE          FAIR      42  25  50 CALM      30.48S
DELTA          FAIR      45  16  31 E3        30.49S
NUCLA          FAIR      45  10  24 CALM      30.50F
$$

COZ017>023-064>068-221800-
...SOUTHWEST COLORADO...

CITY           SKY/WX    TMP DP  RH WIND       PRES   REMARKS
DURANGO        FAIR      45   8  22 CALM      30.44S
CORTEZ         FAIR      55  13  18 W9        30.44F
PAGOSA SPRINGS FAIR      45   4  19 CALM      30.46S
TELLURIDE      FAIR      47  24  40 CALM      30.53S
WOLF CREEK PAS FAIR      37  21  52 NW8       30.61R
$$

COZ009-010-012-014-032>034-037-058>063-221800-
...CENTRAL COLORADO...

CITY           SKY/WX    TMP DP  RH WIND       PRES   REMARKS
ASPEN          FAIR      41  23  48 S10       30.46F
BUENA VISTA    FAIR      52  21  29 NW17G26   30.35S
COPPER MTN     FAIR      34  23  64 NW24G38   30.50S WCI  21
BERTHOUD PASS  PTSUNNY   18   9  68 NW38G51   30.40R WCI  -4
COTTONWOOD PAS FAIR      48  23  37 W20G44    30.42R
GUNNISON       FAIR      37  15  40 CALM      30.51F
KREMMLING      FAIR      46  19  34 SE7       30.44S
LEADVILLE      FAIR      38  20  48 VRB7      30.46R
MONARCH PASS   FAIR      23  12  63 W40G46    30.59R WCI   3
SALIDA         FAIR      56  18  22 SW10      30.42S
SUNLIGHT       FAIR      32  21  64 SW7       30.56R WCI  26
WILKERSON PASS FAIR      34  19  55 NW12G22   30.45S WCI  25
$$

COZ069>075-221800-
...SAN LUIS VALLEY/SANGRE DE CRISTO MOUNTAINS...

CITY           SKY/WX    TMP DP  RH WIND       PRES   REMARKS
ALAMOSA        FAIR      45  11  25 VRB5      30.44F
DEL NORTE      FAIR      42   9  26 SW3       30.45F
LA VETA PASS   FAIR      39  19  45 SW35G44   30.50F
SAGUACHE       FAIR      43  18  36 S5        30.45S
$$

COZ035-036-038>040-221800-
...NORTHERN COLORADO FRONT RANGE...

CITY           SKY/WX    TMP DP  RH WIND       PRES   REMARKS
DENVER INTL AP FAIR      60  23  24 S10       30.17F
DMNS CITY PARK   N/A     63  25  23 W10G24    30.15F
AURORA         MOSUNNY   58  24  26 W8        30.19F
FRONT RANGE AP MOSUNNY   63  23  22 SW7       30.19F
ERIE MUNI ARPT FAIR      55  29  37 N6        30.21F
BOULDER MUN AP FAIR      54  28  37 NE6       30.15F
CENTENNIAL     FAIR      59  23  25 W10G17    30.19F
BROOMFIELD     MOSUNNY   59  27  29 SE5       30.18F
FORT COLLINS   FAIR      50  25  37 S3        30.17F
LONGMONT       FAIR      55  25  31 NE3       30.18F
$$

COZ041-046-047-076>085-087-088-221800-
...PIKES PEAK/PALMER DIVIDE AND SOUTHERN FOOTHILLS...

CITY           SKY/WX    TMP DP  RH WIND       PRES   REMARKS
COLO. SPRINGS  PTSUNNY   53  14  21 CALM      30.26S
A. F. ACADEMY  FAIR      53  17  23 E3        30.23F
SCHRIEVER AFB  FAIR      51  12  20 CALM      30.25S
CHEYENNE MTN   FAIR      49  19  30 NE3       30.21S
ELLICOTT         N/A    N/A N/A N/A W3        30.23F
FALCON         FAIR      55  14  19 W7        30.27S
FORT CARSON    FAIR      48  12  23 NW7       30.23S
LIMON          FAIR      54  14  20 S12       30.22F
MONUMENT HILL  FAIR      55  23  28 W12       30.25F
CANON CITY     FAIR      55  21  26 W10       30.25F
WALSENBURG     NOT AVBL
TRINIDAD       FAIR      59  19  21 W8        30.26F
$$

COZ042>045-048>051-090-091-221800-
...NORTHEAST COLORADO...

CITY           SKY/WX    TMP DP  RH WIND       PRES   REMARKS
GREELEY ARPT   FAIR      47  25  42 E5        30.18F
AKRON          FAIR      59  16  18 SW16      30.17F
BURLINGTON     FAIR      58  15  18 SW21G32   30.22F
WRAY           FAIR      63  14  15 SW18G24   30.17F
YUMA           NOT AVBL
STERLING       NOT AVBL
HOLYOKE        FAIR      63  21  20 SW8G18    30.15F
FORT MORGAN    FAIR      54  19  25 SW9       30.17F
$$

COZ086-089-092>099-221800-
...SOUTHEAST COLORADO...

CITY           SKY/WX    TMP DP  RH WIND       PRES   REMARKS
PUEBLO         FAIR      52  17  25 W6        30.22F
LA JUNTA       FAIR      55  25  31 NW5       30.23S
LAMAR          FAIR      62  15  16 SW13      30.21F
SPRINGFIELD      N/A     55  16  21 SW21G30   30.26F
$$




USA.gov is the U.S. government's official web portal to all federal, state and local government web resources and services.